Flag for Austria Weather past 2 weeks in Eisenstadt, Burgenland, Austria

Now
80 °F

Warm.


Feels Like: 81 °F
Forecast: 60 / 84 °F
Wind: 6 mph from Southeast

Location: Eisenstadt

Current Time: Jul 26, 2014 at 1:44:29 PM

Latest Report: Jul 26, 2014 at 1:00 PM


Visibility: N/A

Pressure: 29.88 "Hg

Humidity: 57%

Dew point: 64 °F

Location of EisenstadtLocation

Historic Weather in Eisenstadt — Graph

°F

Eisenstadt temperature yesterday

Maximum temperature yesterday: 76 °F (at 4:00 PM)
Minimum temperature yesterday: 63 °F (at 1:00 AM)
Average temperature yesterday: 68 °F

Past Weeks' High & Low Weather Summary

 TemperatureHumidityPressure
High91 °F (Jul 20, 4:00 PM)95% (Jul 14, 3:00 AM)30.09 "Hg (Jul 14, 3:00 AM)
Low60 °F (Jul 12, 5:00 AM)32% (Jul 17, 5:00 PM)29.65 "Hg (Jul 21, 6:00 PM)
Average73 °F67%29.90 "Hg
* Reported Jul 11 12:00 Noon — Jul 26 12:00 Noon, Eisenstadt, Weather by CustomWeather, © 2014

Note: Actual official high and low records may vary slightly from our data, if they occured in-between our weather recording intervals... More about our weather records

Advertising

Eisenstadt weather history for previous 24 hours

 ConditionsComfort  
Time TempWeatherWind HumidityBarometerVisibility
12:00 PM
Jul 26
80 °FWarm.6 mph59%29.90 "HgN/A
11:00 AM77 °FPassing clouds.6 mph65%29.91 "Hg9 mi
10:00 AM74 °FMild.5 mph71%29.91 "HgN/A
9:00 AM70 °FMild.3 mph79%29.93 "HgN/A
8:00 AM68 °FPassing clouds.2 mph82%29.92 "Hg9 mi
7:00 AM64 °FPassing clouds.1 mph91%29.92 "Hg9 mi
6:00 AM61 °FPassing clouds.2 mph95%29.92 "Hg5 mi
5:00 AM62 °FPassing clouds.2 mph95%29.92 "Hg5 mi
4:00 AM60 °FPassing clouds.2 mph95%29.92 "Hg9 mi
3:00 AM61 °FCool.2 mph95%29.93 "HgN/A
2:00 AM62 °FClear.2 mph94%29.93 "Hg9 mi
1:00 AM62 °FCool.3 mph93%29.93 "HgN/A
12:00 AM62 °FMild.2 mph93%29.93 "HgN/A
11:00 PM
Jul 25
63 °FPassing clouds.2 mph91%29.93 "Hg9 mi
10:00 PM65 °FMild.2 mph89%29.93 "HgN/A
9:00 PM68 °FMild.1 mph84%29.91 "HgN/A
8:00 PM73 °FPartly sunny.2 mph67%29.90 "Hg9 mi
7:00 PM73 °FMild.3 mph67%29.90 "HgN/A
6:00 PM75 °FMild.2 mph62%29.90 "HgN/A
5:00 PM75 °FPartly sunny.1 mph59%29.90 "Hg16 mi
4:00 PM76 °FMild.2 mph57%29.90 "HgN/A
3:00 PM76 °FMild.2 mph57%29.91 "HgN/A
2:00 PM71 °FMild.No wind69%29.93 "HgN/A
1:00 PM67 °FMild.1 mph74%29.94 "HgN/A
Weather by CustomWeather, © 2014

See weather overviewHow to use our weather pages